674  
ASUS42 KCHS 230612  
RWRCHS  
 
REGIONAL WEATHER ROUNDUP  
NATIONAL WEATHER SERVICE CHARLESTON SC  
100 AM EST THU JAN 23 2020  
 
NOTE: "FAIR" INDICATES FEW OR NO CLOUDS BELOW 12,000 FEET WITH NO  
SIGNIFICANT WEATHER AND/OR S TO VISIBILITY
.  
 
NOT ALL STATIONS ARE QUALITY CONTROLLED. USE DATA WITH CAUTION,  
ESPECIALLY DEWPOINT OBSERVATIONS.  
 
SCZ027-030-031-034>040-042>050-230700-   
..SOUTHEAST SOUTH CAROLINA
 
 
 
CITY SKY/WX TMP DP RH WIND PRES REMARKS
 
N CHARLESTON FAIR 40 29 64 NE9 30.30R WCI 34  
6HR MIN TEMP: 40; 6HR MAX TEMP: 47;  
 
WATERFRONT PRK N/A 43 36 76 N13 30.16S  
MOUNT PLEASANT CLOUDY 39 32 75 N5 30.29F WCI 36  
JOHNS ISLAND FAIR 41 32 70 CALM 30.29F  
PINOPOLIS N/A 41 30 65 NE12 30.26S  
MONCKS CORNER FAIR 39 28 65 NE8 30.30F WCI 34  
SUMMERVILLE FAIR 39 28 65 VRB7 30.29F WCI 34  
BEAUFORT MCAS FAIR 42 32 67 N13 30.27F  
6HR MIN TEMP: 42; 6HR MAX TEMP: 46;  
 
BEAUFORT ARPT FAIR 41 32 70 NE13 30.26F  
HILTON HEAD IS FAIR 45 34 65 N17 30.26F  
WALTERBORO FAIR 41 28 60 NE7 30.31S  
ALLENDALE FAIR 39 21 48 N6 30.30S WCI 35  
   
..SOUTHERN MIDLANDS AND PEE DEE
 
 
 
CITY SKY/WX TMP DP RH WIND PRES REMARKS
 
GEORGETOWN FAIR 36 28 75 N5 30.31F WCI 32  
KINGSTREE FAIR 36 23 60 CALM 30.34R  
ORANGEBURG FAIR 38 20 48 NE7 30.33F WCI 33  
6HR MIN TEMP: 38; 6HR MAX TEMP: 44;  
 
BARNWELL CLOUDY 37 19 48 NE8 30.31F WCI 31  
AIKEN FAIR 35 18 50 NE7 30.33F WCI 29  
MANNING FAIR 34 23 64 NE5 30.33F WCI 30  
COLUMBIA FAIR 37 18 46 N6 30.34F WCI 32  
6HR MIN TEMP: 37; 6HR MAX TEMP: 44;  
 
SUMTER FAIR 34 19 55 NE9 30.32F WCI 26  
6HR MIN TEMP: 32; 6HR MAX TEMP: 42;  
 
FLORENCE FAIR 35 22 58 N6 30.35S WCI 30  
6HR MIN TEMP: 35; 6HR MAX TEMP: 44;  
 
MYRTLE BEACH FAIR 38 27 64 N6 30.30F WCI 33  
N MYRTLE BEACH FAIR 39 28 64 NE14 30.29F WCI 31  
6HR MIN TEMP: 39; 6HR MAX TEMP: 45;  
 

 
 
GAZ063-065-086>088-099>101-113>116-118-119-134>141-150-230700-   
..SOUTHEAST GEORGIA
 
 
 
CITY SKY/WX TMP DP RH WIND PRES REMARKS
 
SAVANNAH ARPT FAIR 43 31 62 N10 30.27F  
6HR MIN TEMP: 43; 6HR MAX TEMP: 48;  
 
HUNTER AAF FAIR 42 31 64 NE5 30.23S  
6HR MIN TEMP: 42; 6HR MAX TEMP: 49;  
 
FORT STEWART FAIR 42 29 61 N8 30.24F  
6HR MIN TEMP: 42; 6HR MAX TEMP: 45;  
 
STATESBORO FAIR 39 26 59 NE5 30.28F WCI 36  
SYLVANIA FAIR 39 26 59 NE5 30.31R WCI 36  
CLAXTON FAIR 44 29 55 NE9 30.27F  
MILLEN FAIR 38 20 47 NE7 30.29F WCI 33  
METTER FAIR 41 24 49 NE9 30.27F  
REIDSVILLE NOT AVBL  
   
..CSRA, CENTRAL AND FAR SOUTHEAST GEORGIA
 
 
 
CITY SKY/WX TMP DP RH WIND PRES REMARKS
 
THOMSON FAIR 37 21 52 SE6 30.31F WCI 32  
AUGUSTA-BUSH FAIR 35 24 64 N5 30.32F WCI 31  
6HR MIN TEMP: 32; 6HR MAX TEMP: 42;  
 
AUGUSTA-DANIEL FAIR 41 17 38 NE8 30.32F  
SWAINSBORO FAIR 41 21 45 E9 30.28F  
VIDALIA FAIR 41 23 48 NE7 30.27F  
EASTMAN NOT AVBL  
HAZLEHURST FAIR 42 24 48 NE5 30.25F  
ALMA FAIR 42 27 55 NE3 30.25F  
6HR MIN TEMP: 41; 6HR MAX TEMP: 45;  
 
WAYCROSS FAIR 44 24 45 NE7 30.23F  
JESUP FAIR 46 30 53 NE6 30.24F  
BAXLEY FAIR 41 28 60 NE6 30.25F  
BRUNSWICK FAIR 45 36 69 N9 30.23S  
SAINT SIMONS FAIR 48 38 68 N8 30.22F  
6HR MIN TEMP: 48; 6HR MAX TEMP: 50;  
 

 
 
SCZ027-028-034-036>038-045-046-048>050-GAZ119-141-230700-   
..LAKE AND SUPPLEMENTAL COASTAL OBSERVATIONS
 
 
 
STATION/POSITION TIME TEMP WIND PRES WAVE SWELL
 
AIR SEA DIR/SP/G HT/PER HT/PER/DIR  
(UTC) (F) (DEG/KT/KT) (MB) (FT/S) (FT/S/D)  
WINYAH BAY 0445 41 20/ 8 1026.0  
LAKE MURRAY 0520 37 10/ 1/ 3 1027.1F  
CHRLSTN HARBOR 0530 44 53 360/ 11/ 14 1026.4R  
ACE BASIN NERRS NOT AVBL  
FORT PULASKI 0524 47 53 40/ 16/ 21 1024.5  
SAPELO ISLAND NOT AVBL  
 

 
 
ANZ835-935-AMZ111-154-330-350-352-354-370-450-454-472-230700-   
..C-MAN AND BUOY OBSERVATIONS
 
 
 
STATION/POSITION TIME TEMP WIND PRES WAVE SWELL
 
AIR SEA DIR/SP/G HT/PER HT/PER/DIR  
(UTC) (F) (DEG/KT/KT) (MB) (FT/S) (FT/S/D)  
BUOY 41004 0550 66 1023.5F 8/ 7 3/ 90/ 8  
BUOY 41008 0550 54 58 40/ 23/ 27 1022.2F 7/ 8 3/ 90/10  
FOLLY BEACH CMAN 0500 44 10/ 15/ 19 1025.7F  
CAPERS NEARSHORE 0508 45 53 60/ 19/ 25 1026.5F  
FRIPP NEARSHORE 0508 47 54 50/ 19/ 25 1025.7F  
 
 
STATION/POSITION TIME TEMP WIND PRES WAVE SWELL
 
AIR SEA DIR/SP/G HT/PER HT/PER/DIR  
(UTC) (F) (DEG/KT/KT) (MB) (FT/S) (FT/S/D)  
5E ST. MARYS GA 0600 57 N/A 8/ 7 3/110/11  
FRYING PAN BUOY 0550 53 63 30/ 23/ 27 1024.4F 8/ 9 3/110/ 9  
BUOY 41025 0550 53 75 350/ 23/ 29 1024.6S 9/ 9 5/ 70/ 9  
CAPE LOOKOUT NC 0500 41 360/ 18/ 24 1027.2S  
BUOY 41002 0550 66 40/ 23/ 31 1020.5S  
BUOY 41010 0550 70 50/ 23/ 31 1018.2 15/12 13/ 60/12  
ST AUGUSTINE FL 0600 58 57 360/ 23/ 25 1020.5F  
 

 
 
 
CLICK HERE TO GO TO PREVIOUS BULLETINS.

The Nexlab SC Page
The Nexlab GA Page Main Text Page